Location: Berduj
(43.0019°N, 22.3781°E)
Time: 04:34:32
(UTC+00:00)

NOSS 3-2 (C) - Pass Details

Date: 19 October 2019
Orbit: 818 x 1394 km, 63.4° (Epoch: 11 November)

Event Time Altitude Azimuth Distance (km) Brightness Sun altitude
Rises 17:37:12 0° 202° (SSW) 3,365 6.5 -21.7°
Reaches altitude 10° 17:39:35 10° 198° (SSW) 2,468 5.7 -22.2°
Maximum altitude 17:45:08 60° 120° (ESE) 1,035 3.3 -23.2°
Enters shadow 17:46:35 47° 70° (ENE) 1,209 3.6 -23.4°
